Regional Weather Roundup
Issued by NWS Green Bay, WI

Home | Current Version | Previous Version | Graphics & Text | Print | Product List | Glossary Off
Versions: 1 2 3 4 5 6 7 8 9 10 11 12 13 14 15 16 17 18 19 20 21 22 23 24 25 26 27 28 29 30 31 32 33 34 35 36 37 38 39 40 41 42 43 44 45 46 47 48 49 50

000
ASUS43 KGRB 011159
RWRGRB

NORTH-CENTRAL AND NORTHEAST WISCONSIN REGIONAL WEATHER ROUNDUP
NATIONAL WEATHER SERVICE GREEN BAY WI
600 AM CST SUN MAR 01 2015

WIZ005-009-010>012-018-019-011300-
NORTH CENTRAL WISCONSIN

CITY           SKY/WX    TMP DP  RH WIND       PRES   REMARKS
IRONWOOD       CLOUDY    12   9  85 SW12      30.13F WCI  -2
MANITOWISH WTR NOT AVBL
ARBOR VITAE    NOT AVBL
EAGLE RIVER    NOT AVBL
LAND O LAKES   NOT AVBL
RHINELANDER    CLOUDY     8   1  73 SW8       30.19F WCI  -4
PHILLIPS       NOT AVBL
ANTIGO         NOT AVBL
TOMAHAWK       NOT AVBL
MERRILL        NOT AVBL
$$

WIZ013-073-011300-
NORTHEAST WISCONSIN

CITY           SKY/WX    TMP DP  RH WIND       PRES   REMARKS
IRON MOUNTAIN  CLEAR      4  -4  69 S5        30.21F WCI  -5
MARINETTE      PTCLDY    10   0  61 SW7       30.30F WCI   0
$$

WIZ017-030-035>037-045-011300-
CENTRAL WISCONSIN

CITY           SKY/WX    TMP DP  RH WIND       PRES   REMARKS
MEDFORD        NOT AVBL
WAUSAU         MOCLDY     8   2  76 S3        30.25F
MOSINEE        MOCLDY     7   3  85 S7        30.27F WCI  -5
MARSHFIELD     CLOUDY     9   4  80 SW7       30.26F WCI  -2
WISC RAPIDS    PTCLDY     8   2  76 S5        30.31F WCI   0
STEVENS POINT  NOT AVBL
WAUPACA        NOT AVBL
SHAWANO        NOT AVBL
CLINTONVILLE   NOT AVBL
$$

WIZ038-039-048-051-011300-
FOX VALLEY

CITY           SKY/WX    TMP DP  RH WIND       PRES   REMARKS
NWS GREEN BAY  MOCLDY    11   7  84 SW3       30.34F
APPLETON       MOCLDY     9   3  78 SW7       30.33F WCI  -3
OSHKOSH        PTCLDY     8   4  83 S5        30.33F WCI   0
FOND DU LAC    PTCLDY     9   6  88 S5        30.34F WCI   1
$$

WIZ022-050-052-011300-
EAST CENTRAL WISCONSIN

CITY           SKY/WX    TMP DP  RH WIND       PRES   REMARKS
STURGEON BAY   CLEAR     10   3  72 SW9       30.34F WCI  -2
MANITOWOC      NOT AVBL
SHEBOYGAN      MOCLDY    11   8  88 SW3       30.34F
$$

LMZ563-521-522-541>543-011300-
LAKESHORE

STATION/POSITION TIME  TEMP    WIND        PRES    VSBY  WAVE
                       AIR SEA DIR/SP/G                  HT/PER
                 (UTC) (F)     (DEG/KT/KT) (MB)    (MI)  (FT/S)
SHEBOYGAN LKSHOR 1100   16     230/  7/  9 1030.1F
KEWAUNEE LKSHORE 1100   13     230/  5/  8 1027.0F
NORTHPORT PIER   1100   13     230/  7/ 10 1026.8F
CHAMBERS ISLAND  1100   12     190/  5/ 11 1026.8F
MENOMINEE LKSHOR 1100   13     210/  8     1027.4F
$$



USA.gov is the U.S. government's official web portal to all federal, state and local government web resources and services.